Change the Weather History Date:

Monday, January 13, 2014

  Actual Average Record
Temperature  
Mean Temperature 42 °F 24 °F  
Max Temperature 48 °F 31 °F 49 °F (1900)
Min Temperature 35 °F 16 °F -24 °F (1972)
Degree Days  
Heating Degree Days 23 42  
Month to date heating degree days 498 552  
Since 1 July heating degree days 3937 4066  
Cooling Degree Days 0 0  
Month to date cooling degree days 0 0  
Year to date cooling degree days 0 0  
Moisture  
Dew Point 30 °F    
Average Humidity 61    
Maximum Humidity 76    
Minimum Humidity 45    
Precipitation  
Precipitation T in 0.05 in 0.39 in (1980)
Month to date precipitation 0.73 0.65  
Year to date precipitation 0.73 0.65  
Snow  
Snow 0.00 in - - ()
Month to date snowfall 10.1  
Year to date snowfall 10.1  
Since 1 July snowfall 43.6  
Snow Depth 3.00 in    
Sea Level Pressure  
Sea Level Pressure 30.07 in    
Wind  
Wind Speed 12 mph (SSW)    
Max Wind Speed 24 mph    
Max Gust Speed 72 mph    
Visibility 10 miles    
Events Rain    
T = Trace of Precipitation, MM = Missing Value Source: NWS Daily Summary

Daily Weather History Graph

Daily Weather History Graph

Search for Another Location

Airport or City:

Trip Planner

Search our weather history database for the weather conditions in past years. The results will help you decide how hot, cold, wet, or windy it might be!

Date:

Astronomy

Jan. 13, 2014 Rise Set
Actual Time 8:24 AM MST 5:07 PM MST
Civil Twilight 7:48 AM MST 5:43 PM MST
Nautical Twilight 7:09 AM MST 6:22 PM MST
Astronomical Twilight 6:32 AM MST 6:59 PM MST
Moon 3:27 PM MST (1/13) 6:14 AM MST (1/13)
Length of Visible Light 9h 54m
Length of Day
8h 43m
Waxing Gibbous, 95% of the Moon is Illuminated
Jan 13
Waxing Gibbous
Jan 15
Full
Jan 23
Last Quarter
Jan 30
New
Feb 6
First Quarter

Hourly Weather History & Observations

Time (MST) Temp. Windchill Dew Point Humidity Pressure Visibility Wind Dir Wind Speed Gust Speed Precip Events Conditions
12:55 AM 37.9 °F 29.2 °F 30.0 °F 73% 29.91 in 10.0 mi SE 15.0 mph 19.6 mph N/A   Overcast
1:55 AM 37.0 °F 31.6 °F 30.0 °F 76% 29.93 in 10.0 mi South 6.9 mph - N/A   Overcast
2:55 AM 37.9 °F 32.1 °F 30.0 °F 73% 29.94 in 10.0 mi South 8.1 mph - N/A   Overcast
3:55 AM 39.0 °F 32.8 °F 30.9 °F 73% 29.95 in 10.0 mi South 9.2 mph - N/A   Overcast
4:55 AM 39.9 °F 32.1 °F 30.9 °F 70% 29.96 in 10.0 mi SSE 13.8 mph - N/A   Overcast
5:55 AM 39.9 °F - 30.9 °F 70% 29.96 in 10.0 mi North - - N/A   Overcast
6:55 AM 39.9 °F 30.5 °F 30.9 °F 70% 29.96 in 10.0 mi SW 19.6 mph 28.8 mph N/A   Overcast
7:55 AM 39.0 °F 29.0 °F 30.9 °F 73% 29.96 in 10.0 mi SW 20.7 mph - N/A   Overcast
8:55 AM 39.0 °F 29.0 °F 30.9 °F 73% 29.98 in 10.0 mi SW 20.7 mph - N/A   Mostly Cloudy
9:55 AM 43.0 °F 35.1 °F 28.9 °F 58% 29.99 in 10.0 mi WSW 17.3 mph 25.3 mph 0.00 in Rain Light Rain
10:55 AM 44.1 °F 35.7 °F 28.0 °F 53% 30.01 in 10.0 mi WSW 20.7 mph 29.9 mph 0.00 in   Mostly Cloudy
12:55 PM 41.0 °F 33.9 °F 30.0 °F 65% 30.02 in 10.0 mi SW 12.7 mph - N/A   Overcast
1:55 PM 42.1 °F 35.2 °F 28.9 °F 60% 30.01 in 10.0 mi SW 12.7 mph - N/A   Overcast
2:55 PM 45.0 °F 43.5 °F 30.0 °F 56% 30.04 in 10.0 mi SSW 3.5 mph - N/A   Overcast
3:55 PM 46.0 °F 41.4 °F 27.0 °F 47% 30.08 in 10.0 mi WNW 9.2 mph 17.3 mph N/A   Scattered Clouds
4:55 PM 45.0 °F 38.9 °F 27.0 °F 49% 30.12 in 10.0 mi WNW 12.7 mph 19.6 mph N/A   Overcast
5:55 PM 44.1 °F 38.6 °F 28.0 °F 53% 30.16 in 10.0 mi West 10.4 mph 21.9 mph N/A   Overcast
6:55 PM 37.9 °F 31.5 °F 30.0 °F 73% 30.19 in 10.0 mi SE 9.2 mph - N/A   Mostly Cloudy
7:55 PM 39.0 °F 34.8 °F 30.0 °F 70% 30.23 in 10.0 mi South 5.8 mph - N/A   Overcast
8:55 PM 37.9 °F 32.7 °F 30.0 °F 73% 30.27 in 10.0 mi SSW 6.9 mph - N/A   Overcast
9:55 PM 37.0 °F 31.0 °F 30.9 °F 79% 30.29 in 10.0 mi SSW 8.1 mph - N/A   Overcast
10:55 PM 37.9 °F 32.1 °F 30.9 °F 76% 30.32 in 10.0 mi SSE 8.1 mph - N/A   Mostly Cloudy
11:55 PM 39.0 °F 34.8 °F 30.0 °F 70% 30.34 in 10.0 mi South 5.8 mph - N/A   Overcast